Flag for Germany Weather past 2 weeks in Salzgitter, Lower Saxony, Germany

Now
55 °F

Passing clouds.


Feels Like: 53 °F
Forecast: 44 / 60 °F
Wind: 10 mph from Northwest

Location: Braunschweig

Current Time: Sep 22, 2014 at 6:34:29 PM

Latest Report: Sep 22, 2014 at 5:50 PM


Visibility: N/A

Pressure: 29.98 "Hg

Humidity: 59%

Dew point: 41 °F

Location of SalzgitterLocation

Historic Weather in Salzgitter — Graph

°F

Salzgitter temperature yesterday

Maximum temperature yesterday: 64 °F (at 1:50 PM)
Minimum temperature yesterday: 61 °F (at 7:50 AM)
Average temperature yesterday: 63 °F

Past Weeks' High & Low Weather Summary

 TemperatureHumidityPressure
High75 °F (Sep 16, 3:20 PM)100% (Sep 8, 6:20 AM)30.21 "Hg (Sep 8, 6:20 AM)
Low50 °F (Sep 9, 6:50 AM)47% (Sep 17, 3:50 PM)29.89 "Hg (Sep 18, 2:20 PM)
Average63 °F82%30.02 "Hg
* Reported Sep 7 5:20 PM — Sep 22 5:20 PM, Salzgitter, Weather by CustomWeather, © 2014

Note: Actual official high and low records may vary slightly from our data, if they occured in-between our weather recording intervals... More about our weather records

Advertising

Salzgitter weather history for previous 24 hours

 ConditionsComfort  
Time TempWeatherWind HumidityBarometerVisibility
5:20 PM
Sep 22
55 °FPassing clouds.12 mph55%29.95 "HgN/A
4:50 PM57 °FPartly sunny.14 mph51%29.95 "HgN/A
4:20 PM57 °FPassing clouds.14 mph51%29.95 "HgN/A
3:50 PM57 °FPassing clouds.18 mph48%29.92 "HgN/A
3:20 PM57 °FPassing clouds.15 mph51%29.92 "HgN/A
2:50 PM57 °FBroken clouds.14 mph51%29.92 "HgN/A
2:20 PM57 °FScattered clouds.17 mph51%29.92 "HgN/A
1:50 PM55 °FBroken clouds.15 mph67%29.92 "HgN/A
1:20 PM55 °FBroken clouds.15 mph67%29.92 "HgN/A
12:50 PM55 °FBroken clouds.14 mph82%29.92 "HgN/A
12:20 PM52 °FCool.12 mph88%29.92 "HgN/A
11:50 AM50 °FPassing clouds.12 mph94%29.92 "HgN/A
11:20 AM52 °FPassing clouds.12 mph82%29.89 "HgN/A
10:50 AM52 °FPartly sunny.10 mph82%29.89 "HgN/A
10:20 AM50 °FMore clouds than sun.14 mph88%29.89 "HgN/A
9:50 AM52 °FRain. Overcast.16 mph88%29.89 "Hg6 mi
9:20 AM54 °FLight rain. Mostly cloudy.16 mph77%29.89 "HgN/A
8:50 AM54 °FPartly sunny.15 mph77%29.89 "HgN/A
8:20 AM54 °FBroken clouds.13 mph77%29.89 "HgN/A
7:50 AM54 °FPartly cloudy.10 mph82%29.89 "HgN/A
7:20 AM54 °FPassing clouds.14 mph82%29.89 "HgN/A
6:50 AM54 °FPartly cloudy.10 mph82%29.92 "HgN/A
Weather by CustomWeather, © 2014

See weather overviewHow to use our weather pages